Location: Arcusa
(42.3167°N, 0.0833°W)
Time: 18:45:52
(UTC+00:00)

USA 116 - Pass Details

Date: 25 January 2020
Orbit: 405 x 834 km, 97.9° (Epoch: 18 November)

Event Time Altitude Azimuth Distance (km) Brightness Sun altitude
Rises 05:40:53 0° 170° (S) 3,095 7.8 -18.4°
Reaches altitude 10° 05:43:16 10° 172° (S) 2,122 6.9 -18.0°
Maximum altitude 05:47:54 75° 257° (WSW) 653 3.9 -17.2°
Drops below altitude 10° 05:52:01 10° 343° (NNW) 1,889 6.2 -16.4°
Enters shadow 05:52:17 - 344° (NNW) 1,999 6.3 -16.4°
